SAS4094 ENGM-ENEV

Flight info

Callsign SAS4094
Flight time 1h 28m
Altitude 37000
Route RIBBE DCT GIGNI DCT SOMUB DCT TUXOT DCT VABOT DCT PENNO
Aircraft A320/M-SDE3FGHIJ1RWXYZ/ALB1

Departure

Time 2026-05-01 10:07
Airport Oslo-Gardermoen International Airport (ENGM)

Arrival

Time 2026-05-01 11:35
Airport Harstad/Narvik Airport (ENEV)
Time Latitude Longitude Altitude Speed Heading
2026-05-01 09:50 60.19373 11.08978 678 ft 0 kts 196°
2026-05-01 10:00 60.19374 11.08978 682 ft 2 kts 196°
2026-05-01 10:00 60.19397 11.08992 681 ft 4 kts 196°
2026-05-01 10:00 60.19413 11.09001 677 ft 1 kts 196°
2026-05-01 10:02 60.19417 11.08980 681 ft 5 kts 307°
2026-05-01 10:03 60.19450 11.08915 684 ft 7 kts 314°
2026-05-01 10:03 60.19492 11.08825 683 ft 11 kts 307°
2026-05-01 10:03 60.19526 11.08638 675 ft 18 kts 283°
2026-05-01 10:03 60.19606 11.08576 678 ft 14 kts 15°
2026-05-01 10:04 60.19706 11.08632 679 ft 16 kts 15°
2026-05-01 10:04 60.19819 11.08693 679 ft 18 kts 14°
2026-05-01 10:04 60.19940 11.08768 680 ft 19 kts 20°
2026-05-01 10:04 60.20070 11.08852 680 ft 20 kts 15°
2026-05-01 10:05 60.20211 11.08933 681 ft 22 kts 15°
2026-05-01 10:05 60.20365 11.09020 682 ft 24 kts 14°
2026-05-01 10:05 60.20532 11.09108 682 ft 26 kts 15°
2026-05-01 10:05 60.20653 11.09044 681 ft 16 kts 265°
2026-05-01 10:06 60.20683 11.08806 679 ft 19 kts 286°
2026-05-01 10:06 60.20647 11.08613 679 ft 16 kts 199°
2026-05-01 10:06 60.20461 11.08502 678 ft 57 kts 196°
2026-05-01 10:06 60.19869 11.08165 674 ft 117 kts 195°
2026-05-01 10:07 60.18955 11.07636 863 ft 143 kts 195°
2026-05-01 10:07 60.18010 11.07066 1560 ft 142 kts 200°
2026-05-01 10:07 60.17074 11.06411 2053 ft 148 kts 209°
2026-05-01 10:07 60.16248 11.04963 2334 ft 171 kts 236°
2026-05-01 10:08 60.15145 11.00013 3012 ft 219 kts 248°
2026-05-01 10:08 60.14515 10.97049 3422 ft 242 kts 250°
2026-05-01 10:08 60.14287 10.93679 4193 ft 250 kts 276°
2026-05-01 10:09 60.14597 10.90245 5183 ft 251 kts 279°
2026-05-01 10:09 60.14922 10.86806 6176 ft 251 kts 279°
2026-05-01 10:09 60.15517 10.83482 7083 ft 259 kts 298°
2026-05-01 10:09 60.16770 10.80803 7930 ft 272 kts 321°
2026-05-01 10:10 60.18565 10.79360 8745 ft 288 kts 346°
2026-05-01 10:10 60.20585 10.79047 9599 ft 296 kts 358°
2026-05-01 10:10 60.24619 10.81793 10836 ft 332 kts 32°
2026-05-01 10:11 60.26364 10.84995 11119 ft 353 kts 43°
2026-05-01 10:11 60.28108 10.88570 11701 ft 361 kts 43°
2026-05-01 10:11 60.29874 10.92211 12409 ft 365 kts 42°
2026-05-01 10:11 60.31660 10.95897 13133 ft 369 kts 42°
2026-05-01 10:12 60.33468 10.99614 13829 ft 373 kts 42°
2026-05-01 10:12 60.34701 11.02139 14250 ft 376 kts 41°
2026-05-01 10:12 60.39031 11.11003 15621 ft 387 kts 41°
2026-05-01 10:13 60.40929 11.14901 16196 ft 391 kts 41°
2026-05-01 10:13 60.42877 11.18784 16750 ft 394 kts 36°
2026-05-01 10:13 60.45077 11.22064 17375 ft 392 kts 25°
2026-05-01 10:14 60.50062 11.26349 18564 ft 391 kts 12°
2026-05-01 10:14 60.52646 11.28166 19099 ft 395 kts 12°
2026-05-01 10:14 60.55252 11.30007 19674 ft 398 kts 12°
2026-05-01 10:14 60.57877 11.31870 20281 ft 401 kts 12°
2026-05-01 10:15 60.60520 11.33758 20845 ft 404 kts 12°
2026-05-01 10:15 60.63183 11.35667 21403 ft 407 kts 13°
2026-05-01 10:15 60.65865 11.37594 21932 ft 410 kts 13°
2026-05-01 10:15 60.68567 11.39536 22462 ft 413 kts 13°
2026-05-01 10:16 60.70365 11.40826 22810 ft 416 kts 13°
2026-05-01 10:16 60.73106 11.42774 23346 ft 418 kts 11°
2026-05-01 10:16 60.78762 11.44628 24302 ft 411 kts 356°
2026-05-01 10:17 60.81622 11.44961 24755 ft 413 kts 356°
2026-05-01 10:17 60.87393 11.45673 25664 ft 418 kts 356°
2026-05-01 10:17 60.90302 11.46044 26095 ft 420 kts 356°
2026-05-01 10:18 60.96160 11.46785 26939 ft 424 kts 356°
2026-05-01 10:18 60.99110 11.47157 27331 ft 426 kts 356°
2026-05-01 10:18 61.02077 11.47532 27724 ft 428 kts 356°
2026-05-01 10:19 61.05057 11.47903 28106 ft 430 kts 356°
2026-05-01 10:19 61.08051 11.48256 28486 ft 431 kts 355°
2026-05-01 10:19 61.11046 11.48446 28870 ft 432 kts 353°
2026-05-01 10:20 61.17068 11.48416 29595 ft 434 kts 352°
2026-05-01 10:20 61.20097 11.48330 29979 ft 436 kts 352°
2026-05-01 10:20 61.23141 11.48257 30328 ft 439 kts 352°
2026-05-01 10:20 61.26201 11.48217 30643 ft 441 kts 352°
2026-05-01 10:21 61.29277 11.48210 30964 ft 443 kts 353°
2026-05-01 10:21 61.35470 11.48262 31690 ft 445 kts 353°
2026-05-01 10:21 61.38563 11.48299 32137 ft 444 kts 353°
2026-05-01 10:22 61.44725 11.48352 33050 ft 441 kts 352°
2026-05-01 10:22 61.50854 11.48370 33919 ft 439 kts 352°
2026-05-01 10:23 61.53868 11.48369 34311 ft 439 kts 352°
2026-05-01 10:23 61.60010 11.48375 35007 ft 438 kts 352°
2026-05-01 10:23 61.63050 11.48392 35352 ft 438 kts 353°
2026-05-01 10:24 61.69093 11.48429 35984 ft 437 kts 353°
2026-05-01 10:24 61.75163 11.48447 36644 ft 436 kts 353°
2026-05-01 10:25 61.81222 11.48460 37118 ft 436 kts 353°
2026-05-01 10:25 61.87286 11.48481 37154 ft 435 kts 353°
2026-05-01 10:26 61.93344 11.48502 37146 ft 435 kts 353°
2026-05-01 10:27 62.05502 11.49742 37180 ft 441 kts 359°
2026-05-01 10:28 62.14638 11.51854 37132 ft 440 kts 359°
2026-05-01 10:28 62.23782 11.53965 37128 ft 441 kts 359°
2026-05-01 10:29 62.32953 11.56065 37126 ft 441 kts 359°
2026-05-01 10:30 62.45128 11.58889 37140 ft 441 kts 359°
2026-05-01 10:31 62.57331 11.61770 37132 ft 441 kts 359°
2026-05-01 10:32 62.66480 11.63904 37134 ft 441 kts 358°
2026-05-01 10:33 62.78656 11.66805 37116 ft 440 kts 359°
2026-05-01 10:34 62.87790 11.69011 37115 ft 440 kts 358°
2026-05-01 10:34 62.93882 11.70464 37114 ft 440 kts 358°
2026-05-01 10:35 63.03029 11.72659 37127 ft 441 kts 358°
2026-05-01 10:35 63.09134 11.74144 37119 ft 442 kts 359°
2026-05-01 10:36 63.18254 11.76383 37116 ft 442 kts 358°
2026-05-01 10:37 63.24363 11.77880 37115 ft 442 kts 358°
2026-05-01 10:37 63.33537 11.80202 37136 ft 446 kts
2026-05-01 10:38 63.39568 11.84218 37130 ft 457 kts 13°
2026-05-01 10:38 63.45549 11.89056 37127 ft 457 kts 13°
2026-05-01 10:39 63.51534 11.93900 37139 ft 457 kts 13°
2026-05-01 10:39 63.57522 11.98776 37143 ft 459 kts 13°
2026-05-01 10:40 63.63535 12.03697 37131 ft 460 kts 13°
2026-05-01 10:40 63.69557 12.08656 37127 ft 461 kts 13°
2026-05-01 10:41 63.75583 12.13644 37126 ft 461 kts 13°
2026-05-01 10:42 63.84626 12.21153 37152 ft 462 kts 13°
2026-05-01 10:42 63.90668 12.26186 37139 ft 463 kts 13°
2026-05-01 10:43 63.96718 12.31260 37129 ft 463 kts 13°
2026-05-01 10:43 64.02784 12.36214 37118 ft 463 kts 11°
2026-05-01 10:44 64.08881 12.40893 37120 ft 462 kts 11°
2026-05-01 10:44 64.14978 12.45560 37122 ft 462 kts 11°
2026-05-01 10:45 64.21070 12.50337 37123 ft 463 kts 12°
2026-05-01 10:45 64.27119 12.55134 37126 ft 463 kts 12°
2026-05-01 10:46 64.33245 12.60024 37128 ft 463 kts 12°
2026-05-01 10:46 64.39295 12.64856 37131 ft 463 kts 12°
2026-05-01 10:47 64.45387 12.69735 37129 ft 464 kts 12°
2026-05-01 10:47 64.51473 12.74646 37097 ft 463 kts 12°
2026-05-01 10:48 64.57560 12.79590 37094 ft 464 kts 12°
2026-05-01 10:48 64.63663 12.84558 37097 ft 465 kts 12°
2026-05-01 10:49 64.69771 12.89551 37096 ft 466 kts 12°
2026-05-01 10:49 64.75886 12.94593 37138 ft 466 kts 12°
2026-05-01 10:50 64.81984 12.99856 37125 ft 468 kts 13°
2026-05-01 10:50 64.88078 13.05256 37112 ft 468 kts 13°
2026-05-01 10:51 64.94171 13.10654 37102 ft 468 kts 13°
2026-05-01 10:51 65.00272 13.16017 37085 ft 467 kts 14°
2026-05-01 10:52 65.06370 13.21389 37102 ft 468 kts 13°
2026-05-01 10:52 65.12411 13.26757 37097 ft 467 kts 13°
2026-05-01 10:53 65.18492 13.32204 37090 ft 467 kts 13°
2026-05-01 10:53 65.24570 13.37684 37056 ft 467 kts 14°
2026-05-01 10:54 65.30643 13.43191 37076 ft 467 kts 14°
2026-05-01 10:54 65.36706 13.48698 37066 ft 465 kts 13°
2026-05-01 10:55 65.42750 13.54190 37054 ft 464 kts 13°
2026-05-01 10:55 65.48794 13.59726 37048 ft 465 kts 13°
2026-05-01 10:56 65.54849 13.65315 37051 ft 466 kts 14°
2026-05-01 10:56 65.60903 13.70930 37057 ft 466 kts 14°
2026-05-01 10:57 65.66964 13.76575 37040 ft 466 kts 14°
2026-05-01 10:57 65.73015 13.82230 37036 ft 466 kts 14°
2026-05-01 10:58 65.79068 13.87907 37034 ft 467 kts 13°
2026-05-01 10:58 65.85126 13.93642 37037 ft 467 kts 14°
2026-05-01 10:59 65.91190 13.99412 37035 ft 468 kts 14°
2026-05-01 10:59 65.97261 14.05188 37038 ft 468 kts 14°
2026-05-01 11:00 66.03324 14.11011 37023 ft 468 kts 14°
2026-05-01 11:00 66.09384 14.16867 37021 ft 468 kts 14°
2026-05-01 11:01 66.15454 14.22748 37024 ft 469 kts 14°
2026-05-01 11:01 66.21525 14.28678 37030 ft 469 kts 14°
2026-05-01 11:02 66.27599 14.34635 37065 ft 469 kts 15°
2026-05-01 11:02 66.33673 14.40601 37054 ft 470 kts 15°
2026-05-01 11:03 66.39713 14.46571 37048 ft 470 kts 15°
2026-05-01 11:03 66.45830 14.52657 37044 ft 470 kts 15°
2026-05-01 11:04 66.51867 14.58691 37027 ft 470 kts 15°
2026-05-01 11:04 66.57935 14.64801 36993 ft 469 kts 14°
2026-05-01 11:05 66.63988 14.70925 36962 ft 469 kts 15°
2026-05-01 11:05 66.70053 14.77075 36964 ft 470 kts 15°
2026-05-01 11:06 66.76126 14.83279 36960 ft 471 kts 15°
2026-05-01 11:06 66.81213 14.88519 36958 ft 471 kts 15°
2026-05-01 11:07 66.90289 14.97892 36960 ft 472 kts 15°
2026-05-01 11:07 66.96366 15.04200 36944 ft 471 kts 15°
2026-05-01 11:08 67.02441 15.10550 36946 ft 472 kts 15°
2026-05-01 11:09 67.11562 15.20156 36735 ft 473 kts 15°
2026-05-01 11:09 67.14599 15.23376 36480 ft 473 kts 15°
2026-05-01 11:09 67.17638 15.26607 36227 ft 472 kts 15°
2026-05-01 11:10 67.23700 15.33076 35739 ft 470 kts 14°
2026-05-01 11:10 67.26716 15.36303 35494 ft 468 kts 14°
2026-05-01 11:10 67.29713 15.39525 35206 ft 464 kts 14°
2026-05-01 11:10 67.32688 15.42733 34706 ft 462 kts 14°
2026-05-01 11:11 67.35654 15.45933 34198 ft 461 kts 13°
2026-05-01 11:11 67.38614 15.49129 33647 ft 460 kts 13°
2026-05-01 11:11 67.41556 15.52315 33126 ft 456 kts 13°
2026-05-01 11:11 67.44471 15.55490 32680 ft 453 kts 13°
2026-05-01 11:12 67.47377 15.58662 32127 ft 453 kts 13°
2026-05-01 11:12 67.50279 15.61827 31643 ft 451 kts 12°
2026-05-01 11:12 67.53164 15.64981 31155 ft 449 kts 12°
2026-05-01 11:12 67.56040 15.68133 30672 ft 447 kts 12°
2026-05-01 11:13 67.58900 15.71287 30187 ft 445 kts 12°
2026-05-01 11:13 67.61746 15.74446 29682 ft 443 kts 12°
2026-05-01 11:13 67.64572 15.77591 29231 ft 439 kts 12°
2026-05-01 11:13 67.67372 15.80718 28779 ft 436 kts 12°
2026-05-01 11:14 67.70145 15.83814 28341 ft 431 kts 12°
2026-05-01 11:14 67.72897 15.86880 27913 ft 427 kts 12°
2026-05-01 11:14 67.75618 15.89923 27476 ft 423 kts 12°
2026-05-01 11:14 67.78314 15.92948 27038 ft 420 kts 12°
2026-05-01 11:15 67.80992 15.95963 26608 ft 417 kts 12°
2026-05-01 11:15 67.83655 15.98962 26151 ft 415 kts 12°
2026-05-01 11:15 67.86310 16.01957 25707 ft 415 kts 12°
2026-05-01 11:15 67.88926 16.04921 25249 ft 415 kts 12°
2026-05-01 11:16 67.91619 16.07976 24777 ft 414 kts 12°
2026-05-01 11:16 67.94248 16.10471 24499 ft 398 kts
2026-05-01 11:16 67.96926 16.11927 24117 ft 389 kts 359°
2026-05-01 11:16 67.99582 16.13243 23694 ft 388 kts 359°
2026-05-01 11:17 68.02231 16.14559 23254 ft 386 kts 359°
2026-05-01 11:17 68.04867 16.15866 22793 ft 384 kts 359°
2026-05-01 11:17 68.07482 16.17171 22411 ft 381 kts 359°
2026-05-01 11:17 68.10073 16.18479 21941 ft 378 kts 359°
2026-05-01 11:18 68.12661 16.19786 21378 ft 379 kts 360°
2026-05-01 11:18 68.15232 16.21091 20957 ft 375 kts 360°
2026-05-01 11:18 68.17788 16.22393 20501 ft 372 kts
2026-05-01 11:18 68.20321 16.23689 20071 ft 369 kts
2026-05-01 11:19 68.22833 16.24971 19655 ft 366 kts
2026-05-01 11:19 68.25328 16.26237 19238 ft 364 kts
2026-05-01 11:19 68.27813 16.27497 18826 ft 362 kts
2026-05-01 11:19 68.30281 16.28749 18420 ft 359 kts
2026-05-01 11:20 68.32730 16.29997 17978 ft 357 kts
2026-05-01 11:20 68.35161 16.31240 17548 ft 354 kts
2026-05-01 11:20 68.37568 16.32478 17147 ft 351 kts
2026-05-01 11:20 68.39954 16.33619 16793 ft 343 kts 356°
2026-05-01 11:21 68.42294 16.33797 16347 ft 334 kts 349°
2026-05-01 11:21 68.44608 16.33728 15940 ft 331 kts 349°
2026-05-01 11:21 68.46902 16.33662 15546 ft 328 kts 349°
2026-05-01 11:21 68.49165 16.33604 15164 ft 324 kts 349°
2026-05-01 11:22 68.51413 16.33541 14782 ft 322 kts 349°
2026-05-01 11:22 68.53650 16.33476 14390 ft 320 kts 349°
2026-05-01 11:22 68.55869 16.33409 14008 ft 318 kts 349°
2026-05-01 11:22 68.58081 16.33338 13632 ft 318 kts 349°
2026-05-01 11:23 68.60303 16.33269 13212 ft 319 kts 349°
2026-05-01 11:23 68.62509 16.33207 12832 ft 316 kts 349°
2026-05-01 11:23 68.64703 16.33145 12440 ft 314 kts 349°
2026-05-01 11:23 68.66878 16.33088 12076 ft 312 kts 349°
2026-05-01 11:24 68.69046 16.33031 11696 ft 312 kts 351°
2026-05-01 11:24 68.71228 16.33964 11292 ft 330 kts 15°
2026-05-01 11:24 68.74238 16.43514 10448 ft 347 kts 79°
2026-05-01 11:25 68.74569 16.50096 9994 ft 346 kts 89°
2026-05-01 11:25 68.74704 16.63146 9474 ft 332 kts 94°
2026-05-01 11:25 68.74713 16.69466 9143 ft 328 kts 94°
2026-05-01 11:26 68.74735 16.75653 8775 ft 326 kts 94°
2026-05-01 11:26 68.72969 16.86660 6975 ft 323 kts 150°
2026-05-01 11:26 68.70947 16.88965 6121 ft 313 kts 180°
2026-05-01 11:27 68.68908 16.87999 5754 ft 288 kts 211°
2026-05-01 11:27 68.67540 16.84438 5653 ft 263 kts 243°
2026-05-01 11:27 68.67220 16.79722 5589 ft 251 kts 276°
2026-05-01 11:27 68.68003 16.75517 5533 ft 254 kts 310°
2026-05-01 11:28 68.69598 16.73380 5474 ft 264 kts 343°
2026-05-01 11:28 68.71444 16.73695 5434 ft 271 kts 10°
2026-05-01 11:28 68.73235 16.74922 5363 ft 255 kts 355°
2026-05-01 11:29 68.75525 16.70694 5247 ft 186 kts 270°
2026-05-01 11:29 68.75163 16.67482 5217 ft 181 kts 226°
2026-05-01 11:29 68.72762 16.64898 5026 ft 199 kts 185°
2026-05-01 11:30 68.71374 16.65150 4792 ft 200 kts 184°
2026-05-01 11:30 68.69983 16.65359 4519 ft 201 kts 185°
2026-05-01 11:30 68.68590 16.65542 4257 ft 200 kts 185°
2026-05-01 11:30 68.67201 16.65715 3991 ft 200 kts 185°
2026-05-01 11:31 68.65814 16.65882 3715 ft 199 kts 185°
2026-05-01 11:31 68.64417 16.66045 3364 ft 202 kts 185°
2026-05-01 11:31 68.63035 16.66212 3200 ft 193 kts 186°
2026-05-01 11:31 68.61724 16.66371 3015 ft 183 kts 186°
2026-05-01 11:32 68.60487 16.66515 2683 ft 174 kts 186°
2026-05-01 11:32 68.59314 16.66651 2401 ft 164 kts 186°
2026-05-01 11:32 68.58208 16.66779 2120 ft 153 kts 187°
2026-05-01 11:32 68.57181 16.66899 1866 ft 143 kts 187°
2026-05-01 11:33 68.56213 16.67009 1630 ft 134 kts 184°
2026-05-01 11:33 68.55295 16.67112 1371 ft 129 kts 184°
2026-05-01 11:33 68.54400 16.67213 1138 ft 127 kts 183°
2026-05-01 11:33 68.53513 16.67311 937 ft 127 kts 184°
2026-05-01 11:34 68.52636 16.67411 723 ft 126 kts 186°
2026-05-01 11:34 68.51759 16.67509 494 ft 127 kts 185°
2026-05-01 11:34 68.50877 16.67607 258 ft 127 kts 181°
2026-05-01 11:34 68.50017 16.67727 86 ft 115 kts 184°
2026-05-01 11:35 68.49372 16.67787 93 ft 69 kts 178°
2026-05-01 11:35 68.49045 16.67815 99 ft 35 kts 179°
2026-05-01 11:35 68.48918 16.67869 93 ft 11 kts 156°
2026-05-01 11:35 68.48888 16.68053 90 ft 14 kts 68°
2026-05-01 11:36 68.48901 16.68271 90 ft 9 kts 92°
2026-05-01 11:36 68.48895 16.68433 92 ft 8 kts 88°
2026-05-01 11:36 68.48932 16.68524 93 ft 11 kts
2026-05-01 11:36 68.48976 16.68517 93 ft 1 kts 356°
2026-05-01 11:37 68.48982 16.68517 93 ft 0 kts 357°